Wetbulb
55.33 55.51 54.45 53.50 52.97 52.49 51.62 50.95 50.34 50.15 48.68 47.58 48.37 49.64 49.57 47.87 47.31 46.63 46.10 45.71 44.62 43.85 43.00 42.28 42.08 41.33 40.69 40.46 40.16 40.84 40.59 40.19
54.13 53.80 53.01 52.27 51.63 50.61 49.84 48.85 48.47 48.15 47.81 46.94 48.53 47.90 47.37 46.96 46.19 44.93 44.31 44.09 43.20 42.56 41.61 41.20 41.18 40.20 39.93 40.27 39.80 39.08 39.27 40.07
51.20 51.55 51.14 50.80 50.25 49.62 48.81 48.03 47.47 47.16 46.95 43.60 44.97 47.17 45.85 45.31 45.47 44.71 43.45 42.70 42.12 41.10 40.77 40.23 40.32 39.64 39.83 39.56 38.85 37.41 38.21 38.92
49.71 49.63 49.88 49.75 48.61 48.16 47.73 46.21 45.34 44.94 42.08 42.94 44.75 44.50 45.96 46.05 44.58 42.95 42.32 41.64 41.09 41.01 40.66 39.91 39.94 39.95 38.83 38.97 38.11 37.12 34.87 37.64
49.48 48.67 48.10 47.80 47.11 47.32 45.57 43.81 42.73 42.35 41.65 41.67 42.45 42.75 40.70 41.79 41.53 41.77 41.04 40.79 40.48 40.44 40.25 39.90 39.95 39.66 38.90 38.47 38.05 36.97 36.40 34.15
48.14 47.80 47.07 46.77 46.46 44.48 43.83 43.61 41.62 39.04 40.87 41.28 42.90 41.32 41.88 42.04 41.02 39.54 40.11 40.59 40.21 39.72 39.66 39.53 39.52 39.36 38.70 37.71 36.98 36.18 36.08 33.93
47.59 46.68 46.11 45.14 45.32 43.91 44.11 41.24 38.16 40.45 40.78 41.83 41.51 40.11 39.64 39.00 38.30 38.38 38.83 39.57 39.93 39.68 39.03 39.63 39.47 38.67 38.09 37.61 36.96 35.96 34.74 34.07
44.59 44.17 44.56 44.54 43.47 44.36 42.40 38.76 37.67 39.71 40.12 41.03 40.36 39.80 38.73 37.78 38.46 38.08 37.53 37.52 38.00 38.69 38.88 38.50 38.71 38.67 38.11 37.46 36.83 34.93 33.70 31.95
44.99 45.38 45.28 43.80 43.78 42.69 41.22 37.65 37.62 38.98 41.17 39.93 40.19 38.93 39.28 39.01 38.70 38.26 37.88 37.58 37.83 38.70 38.66 39.02 38.67 38.53 37.65 37.04 36.75 33.45 32.88 31.67
44.95 45.47 45.06 43.73 42.96 42.00 38.67 37.67 38.32 40.51 39.92 39.62 39.06 39.32 38.84 38.26 38.53 38.61 38.08 38.48 37.94 38.46 38.47 38.44 38.67 37.82 37.06 36.39 34.73 32.18 31.99 32.24
44.75 44.90 44.17 43.91 41.95 38.79 39.07 39.05 40.23 39.52 39.33 39.36 39.25 38.90 38.85 38.66 38.46 37.71 38.00 38.43 38.55 38.00 37.98 38.15 37.50 36.93 36.29 35.79 33.05 32.57 31.67 31.79
44.67 44.26 44.17 42.47 39.86 40.13 38.04 41.85 39.19 39.46 39.40 39.20 39.03 38.73 38.24 38.29 37.98 38.12 38.36 38.43 38.08 37.77 37.29 36.77 36.24 35.06 35.56 33.68 32.44 31.98 31.96 31.89
44.85 44.17 42.74 39.45 38.60 40.59 42.40 41.02 40.08 39.13 38.97 38.76 38.45 38.30 38.03 37.94 37.57 37.56 38.02 37.43 37.91 37.02 36.43 35.29 34.41 34.91 34.57 32.32 30.90 31.85 32.07 31.21
44.02 43.40 41.38 38.05 40.45 41.20 41.71 40.96 39.29 38.77 38.40 38.12 38.10 37.54 37.39 36.97 36.72 36.56 36.65 36.39 36.07 35.66 34.95 34.32 34.36 34.17 33.29 32.10 31.08 31.92 31.85 31.49
43.65 43.16 40.74 40.33 40.86 41.16 41.65 39.91 38.98 38.32 37.83 37.46 37.06 36.88 36.34 35.85 35.62 35.48 35.21 35.22 34.64 34.54 34.85 34.56 34.21 33.90 33.17 30.24 30.86 31.30 31.36 31.81
42.65 42.44 41.16 40.61 38.69 39.15 40.76 40.01 38.64 38.14 37.04 36.78 36.34 36.13 35.55 34.81 34.22 34.41 34.59 34.61 34.54 34.59 34.32 34.09 33.95 33.52 31.36 30.05 31.02 30.00 30.61 30.64
41.38 41.16 39.83 36.50 37.94 40.07 39.86 38.81 37.97 38.07 36.75 36.00 35.38 34.45 33.68 33.46 33.66 33.83 33.98 33.98 33.97 34.05 33.83 33.29 33.08 32.77 28.92 30.06 29.80 29.43 30.77 30.21
39.58 39.77 36.28 37.69 38.79 40.05 40.55 38.21 38.29 36.95 35.98 34.97 33.69 33.28 32.75 33.09 33.41 33.45 33.07 33.37 34.08 33.51 33.32 32.96 32.50 33.09 28.74 29.47 29.24 30.51 30.32 30.85
39.02 36.74 38.19 38.97 41.01 41.28 39.09 38.59 37.33 35.97 34.74 32.78 33.02 33.08 32.63 33.11 33.18 32.86 33.21 33.90 33.64 33.08 33.02 32.70 32.30 32.00 28.51 28.74 28.70 30.93 30.89 31.68
MSLP
1018.77 1019.73 1020.69 1021.59 1022.69 1023.48 1024.19 1024.87 1025.58 1025.91 1026.35 1026.65 1026.71 1026.75 1026.73 1026.90 1026.74 1027.12 1027.36 1027.05 1027.23 1026.97 1026.29 1026.49 1026.23 1025.55 1025.31 1025.24 1024.73 1024.09 1023.31 1022.72
1019.60 1020.59 1021.56 1022.38 1023.40 1024.11 1024.83 1025.50 1026.16 1026.26 1026.30 1026.46 1026.46 1026.45 1026.73 1027.07 1027.09 1027.73 1027.49 1027.59 1027.45 1027.06 1026.69 1026.51 1026.39 1025.83 1025.79 1025.47 1024.89 1024.17 1023.23 1023.01
1020.49 1021.54 1022.44 1023.18 1023.83 1024.68 1025.35 1025.93 1026.39 1026.50 1026.57 1027.23 1027.03 1026.97 1026.99 1027.20 1027.69 1027.85 1027.87 1027.82 1027.73 1027.37 1027.35 1026.81 1026.66 1026.14 1025.75 1025.55 1025.18 1024.56 1023.75 1023.54
1021.08 1022.13 1022.97 1023.79 1024.51 1025.16 1025.77 1026.62 1027.16 1027.53 1028.07 1027.91 1027.76 1027.57 1026.93 1026.74 1027.35 1027.27 1027.79 1028.13 1027.95 1027.81 1027.61 1027.25 1026.87 1026.42 1025.88 1025.67 1025.47 1025.04 1024.31 1023.72
1021.67 1022.70 1023.57 1024.41 1025.27 1026.08 1026.92 1027.50 1027.91 1028.52 1028.61 1028.36 1028.05 1027.34 1027.01 1027.74 1027.58 1027.55 1027.62 1028.07 1028.03 1027.90 1027.78 1027.49 1027.01 1026.55 1026.10 1025.81 1025.60 1025.37 1024.85 1024.11
1022.38 1023.33 1024.36 1025.27 1025.98 1026.96 1027.67 1028.25 1028.82 1029.32 1028.95 1028.58 1028.05 1027.87 1027.89 1027.95 1027.81 1027.89 1027.76 1027.74 1027.97 1028.05 1027.93 1027.54 1027.07 1026.61 1026.38 1026.17 1025.79 1025.49 1024.96 1024.62
1023.23 1024.37 1025.26 1025.90 1026.66 1027.57 1028.21 1028.87 1029.42 1029.21 1029.00 1028.88 1028.83 1028.64 1028.43 1028.26 1028.31 1027.93 1027.69 1027.55 1027.48 1027.54 1027.70 1027.31 1027.03 1026.77 1026.35 1025.84 1025.54 1025.25 1025.06 1024.91
1024.21 1024.97 1025.57 1026.38 1027.30 1027.90 1028.83 1029.47 1029.56 1029.35 1029.26 1029.23 1029.27 1029.11 1029.08 1028.73 1028.43 1028.19 1028.03 1027.86 1027.64 1027.51 1027.65 1027.32 1026.81 1026.73 1026.33 1025.84 1025.28 1025.20 1025.19 1025.27
1024.54 1025.20 1025.91 1026.99 1027.82 1028.70 1029.32 1029.79 1029.71 1029.65 1029.52 1029.58 1029.52 1029.59 1029.10 1028.81 1028.80 1028.67 1028.35 1028.19 1027.84 1027.91 1027.55 1027.17 1026.82 1026.52 1026.23 1025.71 1025.01 1025.53 1025.53 1025.34
1024.97 1025.83 1026.61 1027.65 1028.41 1029.17 1029.94 1030.11 1029.99 1029.76 1029.82 1029.83 1029.81 1029.66 1029.51 1029.36 1029.16 1028.98 1028.55 1028.25 1028.03 1027.72 1027.53 1026.99 1026.58 1026.35 1026.05 1025.58 1025.22 1025.53 1025.53 1025.03
1025.49 1026.29 1027.23 1028.01 1029.16 1030.20 1030.48 1030.43 1030.07 1030.01 1030.09 1030.14 1030.01 1029.97 1029.86 1029.65 1029.35 1029.07 1028.75 1028.38 1027.96 1027.68 1027.25 1026.87 1026.55 1026.25 1025.91 1025.44 1025.35 1025.29 1025.03 1024.63
1025.80 1026.81 1027.69 1028.75 1029.81 1030.45 1030.81 1030.21 1030.09 1030.15 1030.27 1030.31 1030.25 1030.13 1029.99 1029.72 1029.40 1029.13 1028.80 1028.43 1028.06 1027.60 1027.30 1026.95 1026.57 1026.30 1025.87 1025.58 1025.33 1024.97 1024.44 1023.94
1026.23 1027.14 1028.11 1029.33 1030.10 1030.63 1030.21 1030.34 1030.26 1030.53 1030.61 1030.65 1030.53 1030.36 1030.17 1029.83 1029.58 1029.35 1029.09 1028.55 1028.13 1027.79 1027.45 1027.09 1026.73 1026.31 1025.90 1025.67 1025.41 1024.74 1023.97 1023.29
1026.65 1027.50 1028.47 1029.59 1030.13 1030.49 1030.39 1030.34 1030.53 1030.69 1030.70 1030.62 1030.64 1030.56 1030.30 1030.00 1029.77 1029.60 1029.27 1028.83 1028.40 1027.98 1027.57 1027.16 1026.73 1026.31 1025.89 1025.84 1025.50 1024.49 1023.65 1022.96
1026.83 1027.69 1028.85 1029.58 1030.36 1030.74 1030.65 1030.66 1030.90 1030.88 1030.86 1030.81 1030.83 1030.75 1030.61 1030.41 1030.13 1029.80 1029.50 1029.10 1028.59 1028.13 1027.69 1027.25 1026.80 1026.25 1025.82 1026.21 1025.27 1024.20 1023.32 1022.68
1027.02 1027.81 1029.03 1029.93 1030.99 1031.19 1030.82 1030.92 1031.08 1031.12 1031.05 1030.97 1031.07 1031.03 1030.83 1030.64 1030.34 1030.01 1029.67 1029.20 1028.71 1028.21 1027.73 1027.24 1026.76 1026.14 1026.35 1026.23 1025.19 1024.09 1023.05 1022.34
1027.38 1028.39 1029.47 1030.89 1031.34 1031.11 1031.10 1031.09 1031.29 1031.31 1031.26 1031.28 1031.37 1031.28 1031.05 1030.88 1030.51 1030.12 1029.63 1029.15 1028.69 1028.15 1027.61 1027.15 1026.67 1026.13 1027.02 1026.29 1025.33 1023.99 1022.76 1022.01
1027.89 1028.86 1030.28 1031.07 1031.43 1031.12 1031.09 1031.25 1031.51 1031.53 1031.55 1031.66 1031.71 1031.57 1031.32 1031.03 1030.61 1030.20 1029.70 1029.16 1028.59 1028.01 1027.55 1027.12 1026.67 1026.32 1026.91 1026.02 1025.11 1023.70 1022.68 1021.89
1028.57 1029.81 1030.64 1031.19 1031.09 1031.00 1031.31 1031.43 1031.61 1031.74 1031.89 1032.03 1032.04 1031.88 1031.56 1031.18 1030.67 1030.29 1029.81 1029.18 1028.54 1028.09 1027.62 1027.23 1026.80 1026.34 1026.78 1026.05 1025.06 1023.46 1022.46 1021.73
Wind_Speed
13 13 13 13 12 10 10 7 7 6 5 3 2 2 2 3 4 5 6 6 7 8 7 8 9 7 7 8 10 9 9 9
13 13 13 13 11 11 10 9 8 4 4 2 1 2 2 3 5 6 6 7 8 8 8 8 8 8 9 10 10 11 9 10
13 14 13 12 11 11 10 8 6 5 4 5 3 2 3 5 4 4 7 7 8 8 8 8 8 8 9 10 10 10 9 9
14 14 13 12 12 10 10 10 9 10 7 1 2 4 3 2 3 5 5 8 7 8 8 8 8 8 8 10 10 13 10 10
13 13 13 12 12 11 12 11 11 10 8 3 5 6 6 5 5 5 6 6 7 8 8 8 8 8 9 9 9 10 10 10
13 13 13 13 12 12 11 12 11 7 6 5 5 6 3 3 5 6 6 6 6 7 8 8 9 8 9 10 11 11 9 7
13 13 13 12 12 11 10 11 7 7 6 7 7 6 6 7 7 6 6 5 5 6 8 8 9 10 10 10 11 11 10 8
13 14 12 11 11 11 10 8 7 6 6 7 7 7 8 6 8 7 8 7 6 7 9 9 9 10 11 11 11 10 10 7
12 12 11 11 11 11 9 7 7 6 7 7 7 7 5 6 8 7 7 6 7 10 9 9 11 11 11 11 9 8 10 8
12 11 10 10 10 10 8 7 5 6 7 6 6 7 8 8 8 8 7 8 8 9 11 10 11 11 12 13 8 9 10 9
11 10 10 9 11 9 7 4 6 6 6 6 7 8 8 8 8 9 9 9 10 10 10 11 11 12 13 12 9 9 10 8
11 9 9 11 10 8 4 4 5 6 6 7 7 7 8 8 7 9 9 10 10 10 11 11 12 13 12 10 11 12 11 12
10 10 10 9 8 6 3 4 6 6 6 7 7 8 8 8 9 10 10 11 10 11 11 12 12 12 12 11 12 15 12 14
9 9 9 8 6 2 4 5 6 6 6 6 7 8 9 9 10 10 11 11 11 11 11 11 12 12 12 12 14 16 13 13
9 8 8 7 5 4 2 5 5 5 6 7 7 9 9 10 10 10 10 11 11 11 11 11 12 12 11 14 16 16 14 12
9 8 8 7 4 1 2 4 4 5 6 7 8 9 8 9 10 10 10 11 11 11 11 11 12 11 10 16 17 17 15 13
8 8 7 5 3 2 3 3 4 5 6 7 8 8 9 9 9 10 10 11 11 11 11 12 12 9 19 23 21 16 14 13
9 7 8 5 4 3 1 3 3 5 6 8 8 8 9 9 9 10 11 11 11 12 12 13 13 12 20 24 25 14 13 13
8 9 7 6 6 4 4 3 4 5 7 7 8 8 8 9 10 11 11 11 12 12 12 14 14 11 19 25 26 15 12 14
Wind_Direction
149 152 139 138 133 128 119 108 111 114 103 111 144 104 63 13 17 23 360 31 4 345 347 350 337 343 344 344 334 334 320 334
142 136 136 129 126 122 117 112 109 132 149 138 100 21 52 29 45 15 22 12 2 354 351 350 346 346 346 342 337 336 333 345
135 140 135 137 124 111 111 111 92 53 51 39 357 3 51 27 16 19 14 5 1 351 353 347 354 340 344 346 344 335 334 339
141 142 135 127 119 114 100 84 79 61 66 49 63 185 199 357 352 7 25 356 359 357 351 346 343 340 344 341 345 336 328 322
139 136 137 115 104 96 83 81 78 61 33 27 349 6 4 7 348 11 339 4 352 355 345 345 342 336 342 341 337 327 326 322
136 137 121 113 108 97 96 81 73 67 54 14 350 19 20 2 352 342 352 358 354 357 342 334 339 339 340 335 330 326 320 324
126 119 125 116 103 97 90 86 83 68 52 41 32 23 5 2 357 343 353 350 340 3 337 333 332 339 334 330 325 321 324 323
135 142 132 117 116 102 92 92 77 63 52 40 30 16 19 353 350 354 342 344 343 355 336 331 335 333 329 328 321 336 326 315
148 140 133 118 101 93 95 87 70 49 39 33 28 16 360 356 359 350 346 335 336 335 332 323 327 330 330 327 323 335 324 309
142 132 115 111 110 97 89 75 62 40 36 23 21 8 5 359 349 346 343 336 331 332 324 321 327 331 329 325 341 325 310 308
141 132 126 116 97 97 78 58 52 40 34 17 14 5 359 354 346 345 338 334 329 326 326 328 330 331 329 328 332 329 312 310
147 135 127 107 110 93 105 72 49 34 26 15 9 0 355 350 345 343 343 335 335 334 334 331 333 331 331 335 329 323 308 313
142 140 128 127 119 87 88 62 40 29 24 10 2 359 352 355 356 352 346 344 341 339 336 335 334 335 337 331 334 318 316 318
150 148 136 133 132 135 61 44 40 24 12 4 7 1 0 358 357 355 352 349 347 343 339 339 339 340 334 348 323 322 321 319
162 158 143 153 104 71 50 52 29 15 9 5 11 6 1 0 357 355 355 350 348 345 344 343 343 340 349 338 327 323 322 320
172 163 151 125 120 227 75 45 29 11 7 10 11 7 6 3 1 359 357 355 353 349 346 348 345 344 12 333 333 329 319 317
166 162 136 141 161 212 77 54 31 4 15 15 14 10 10 6 2 359 357 356 356 355 354 352 350 347 356 338 338 325 322 325
167 159 136 158 172 159 59 85 36 15 20 20 17 12 8 4 1 359 359 356 352 354 358 357 352 355 354 342 343 323 328 324
156 123 139 143 192 130 113 85 41 30 29 26 19 8 7 3 2 0 358 352 358 359 356 358 357 4 0 347 343 335 332 333